Wind_Speed
7 6 6 7 9 11 12 13 13 14 14 13 14 15 15 15 14 14 16 16 15 15 14 12 12 12 12 13 15 15 12 11 11 10 10 10 11 11 10 9 8 8 7 6 6 6 7 7 8 8 8 7 8 7 6 4 3 2 1 1 2 2 2 3 3 2 2 1 1 1 2 2 2 2 2 2 2 1 2 3 3 3 2 2 1
9 8 8 9 10 11 12 13 13 14 15 15 14 14 15 16 16 16 17 17 17 15 15 14 12 12 12 13 15 15 14 12 12 11 10 10 11 11 11 10 9 9 8 7 7 7 7 8 8 8 7 7 7 7 5 3 2 2 3 3 3 3 3 3 2 2 1 1 2 2 3 2 2 2 2 2 2 2 3 3 3 2 2 1 1
10 11 11 11 11 12 13 14 14 14 15 16 15 14 15 16 16 16 16 17 18 16 15 15 13 13 14 15 15 15 14 14 13 12 11 10 11 12 11 11 10 10 9 8 8 7 8 8 8 8 7 6 7 6 4 3 3 4 4 4 4 3 3 3 3 3 2 2 2 2 2 2 2 2 2 2 3 3 3 3 3 2 2 2 2
10 11 12 12 12 11 11 12 13 14 15 16 16 15 14 14 15 16 16 16 18 17 15 16 15 14 15 16 16 16 15 15 14 11 11 10 10 11 12 12 11 11 10 9 9 9 8 8 8 8 7 6 6 5 4 4 4 5 6 5 5 4 4 4 4 4 3 3 3 2 2 2 2 2 3 3 3 3 3 3 2 2 2 2 2
10 10 11 12 12 11 10 10 11 12 14 15 16 15 14 13 14 15 16 16 17 16 16 17 17 15 15 16 17 17 16 16 15 12 10 10 9 10 12 12 12 12 11 10 10 9 9 9 9 8 7 6 6 5 5 5 5 6 6 6 6 5 4 4 4 4 4 4 4 3 2 2 3 3 3 4 4 3 3 3 3 3 3 3 3
9 9 10 11 12 12 11 11 10 11 13 15 16 17 16 14 12 13 15 17 17 16 17 19 19 17 16 17 18 18 18 18 17 14 11 10 9 9 11 12 13 13 12 11 10 10 10 10 9 8 8 7 6 5 5 5 6 6 7 7 6 6 5 5 5 5 6 5 5 4 4 4 4 4 4 4 3 3 3 4 4 4 4 4 4
9 9 10 12 13 13 13 12 12 12 13 15 17 18 18 16 13 12 13 15 16 16 18 20 21 21 18 18 19 19 19 19 19 17 13 11 9 9 10 12 14 14 13 12 12 11 10 10 10 9 9 8 6 6 6 6 6 7 7 7 7 6 6 5 6 6 6 6 6 6 5 5 4 4 4 4 4 4 4 4 4 4 4 4 4
11 11 12 12 13 13 14 14 14 14 14 15 16 17 18 17 16 14 12 12 14 16 18 21 23 24 22 21 21 20 20 20 20 20 18 16 13 11 11 12 14 15 14 13 13 12 11 11 11 11 10 9 7 7 7 7 7 8 7 7 7 6 6 6 6 7 7 7 7 6 6 6 5 5 4 4 4 4 5 5 5 5 5 5 5
13 14 14 14 14 14 15 15 15 15 15 15 16 16 17 18 18 16 14 12 12 14 17 20 23 25 25 23 22 22 22 20 20 21 22 22 20 18 15 14 15 17 16 14 14 13 12 12 12 12 11 10 9 8 8 9 9 9 8 8 8 7 7 7 7 7 8 7 7 7 7 6 6 6 5 5 4 5 5 5 5 6 6 5 5
16 15 15 15 15 15 16 16 17 16 17 16 16 16 17 18 19 18 17 14 13 14 16 19 21 23 25 25 24 24 24 23 20 20 23 26 25 24 22 19 17 17 18 16 15 15 14 13 13 13 12 12 10 9 9 10 10 10 10 9 9 9 9 8 8 8 8 8 8 8 8 7 7 6 6 5 5 5 6 6 6 6 6 6 6
17 16 16 16 16 16 16 17 17 18 18 18 18 17 18 18 19 19 19 18 16 16 16 18 20 23 24 26 27 26 25 26 23 21 23 25 24 23 24 24 21 19 19 18 17 16 15 15 14 13 13 13 12 11 10 11 11 11 11 10 10 10 10 10 9 9 9 9 9 9 9 8 8 7 7 6 6 6 6 7 7 7 7 7 7
18 17 16 17 17 17 17 17 18 19 19 20 20 20 19 19 19 19 20 20 19 19 18 18 19 21 23 25 28 28 26 25 25 24 24 25 24 23 24 26 24 21 20 19 19 18 17 16 15 14 14 14 14 12 12 12 12 12 12 12 12 12 12 11 10 10 10 10 10 10 10 9 9 8 7 7 7 7 7 7 7 8 8 8 7
18 18 18 18 18 18 18 19 19 20 20 21 22 22 22 22 21 20 20 20 20 20 20 20 19 20 22 23 26 27 26 25 24 25 26 26 25 25 25 26 26 24 21 20 20 20 19 18 16 15 15 15 15 14 13 13 13 13 13 13 14 13 13 12 11 11 12 11 11 11 11 11 10 9 8 8 8 8 8 8 8 8 8 9 8
19 19 19 19 20 20 20 21 21 21 22 22 23 23 23 23 22 22 21 20 21 21 20 21 21 21 22 21 22 23 25 25 24 26 27 26 26 25 25 25 26 25 22 20 21 21 20 19 18 17 16 16 16 16 15 15 15 14 14 14 15 15 14 13 13 13 13 13 13 12 12 12 11 10 10 10 10 10 9 8 8 8 9 9 9
19 19 20 20 21 21 22 22 23 23 23 24 23 23 24 23 22 22 23 22 22 22 22 21 21 22 22 21 21 22 23 24 25 27 28 27 27 25 25 25 26 27 23 21 22 22 21 20 19 18 17 17 17 17 16 16 16 15 15 15 15 15 15 14 14 14 14 15 14 14 14 13 12 12 11 11 11 11 10 9 9 9 10 10 10
20 20 20 21 21 22 23 23 23 23 24 23 23 23 23 23 22 23 23 23 24 24 23 22 21 22 22 21 21 21 21 22 25 29 29 27 26 26 27 26 27 28 26 23 23 22 22 22 21 20 19 18 18 18 18 17 17 17 16 16 16 16 16 16 15 15 15 16 16 15 15 15 14 13 13 13 13 12 11 10 10 10 10 10 11
20 20 20 21 22 23 23 23 23 23 23 23 22 22 22 22 22 22 23 23 25 25 24 23 22 24 24 22 22 22 21 22 25 28 29 28 27 27 29 29 28 29 28 26 24 23 23 24 23 21 21 19 19 19 19 18 18 18 18 17 16 17 17 17 16 16 16 17 17 17 17 16 15 15 15 14 14 13 12 12 11 11 11 11 11
20 20 21 22 22 23 23 24 24 23 22 22 22 22 22 22 21 22 23 23 23 24 25 25 23 23 24 23 24 24 22 23 25 27 30 30 29 28 29 30 30 30 30 28 26 24 24 25 24 23 22 21 20 20 20 20 20 20 19 18 18 18 18 18 17 17 17 18 18 18 18 18 17 16 16 15 15 14 14 13 13 12 12 12 12
21 21 22 22 22 23 23 24 23 22 22 21 20 20 21 21 22 22 23 23 23 24 25 26 24 23 25 25 24 25 23 23 25 28 30 31 30 29 29 31 32 31 30 29 27 26 26 26 25 24 23 22 21 21 21 21 21 21 21 20 19 19 19 19 18 18 18 19 19 19 19 19 18 18 17 16 16 15 15 15 14 13 13 13 13
21 21 22 22 22 23 23 23 23 22 21 20 19 19 20 20 21 21 22 22 23 24 25 26 25 25 27 27 26 26 25 24 25 27 30 31 30 30 30 31 33 32 31 30 28 28 29 28 27 25 24 23 23 22 22 22 22 22 23 22 21 20 20 20 20 19 19 19 19 19 20 20 20 19 18 17 17 16 16 16 15 14 14 14 14
22 22 22 22 23 23 23 22 22 21 19 18 18 19 20 20 21 20 21 22 23 25 26 27 26 26 27 27 27 27 27 27 27 27 29 30 31 31 30 32 33 32 33 33 31 30 30 30 28 26 25 24 24 23 23 23 24 24 24 23 22 21 21 21 21 21 20 20 20 20 21 21 21 20 19 18 18 17 17 17 16 16 15 15 15
23 23 23 23 23 23 23 22 21 20 19 18 18 19 20 21 22 22 21 21 22 24 26 27 27 27 28 28 27 28 29 28 28 29 29 29 30 31 31 32 33 34 35 35 33 32 31 30 29 27 26 26 25 25 24 24 25 25 25 25 23 23 22 22 22 22 21 21 21 21 21 22 22 21 21 20 19 18 18 17 17 16 16 16 16
24 24 24 24 24 24 23 22 21 20 19 18 19 20 21 22 23 24 24 23 23 23 24 27 28 29 30 30 29 30 30 29 29 30 30 29 30 31 32 33 33 34 35 35 35 34 32 31 30 29 28 27 27 26 26 25 25 26 26 26 25 24 24 23 23 23 22 22 22 22 22 23 23 23 22 21 20 20 19 18 18 17 17 17 17
24 24 24 24 24 24 23 22 21 20 19 18 19 20 21 23 24 25 26 26 25 24 24 26 28 29 30 31 31 31 31 30 31 32 31 31 30 31 32 34 34 34 34 35 35 35 33 31 31 31 30 29 29 28 28 27 26 27 27 27 27 27 26 25 24 24 24 23 23 23 23 24 24 24 23 22 22 21 21 20 19 19 18 18 18
24 24 24 25 25 24 23 22 21 20 19 19 19 19 20 22 23 24 26 27 26 26 25 26 28 28 29 30 31 32 32 31 32 32 32 33 33 32 32 34 34 34 34 35 35 36 35 32 32 33 32 31 30 29 29 29 28 28 28 29 28 28 27 26 26 25 25 24 24 24 24 25 25 25 24 24 23 23 22 21 21 20 20 19 19
25 25 25 25 25 24 23 22 21 20 20 19 19 18 18 19 21 23 24 26 27 26 26 26 27 28 29 29 30 32 33 32 33 33 33 34 34 35 35 34 34 35 35 36 36 36 36 34 34 35 34 33 32 31 30 31 30 29 29 29 29 29 29 28 27 27 26 26 25 25 26 26 26 26 25 25 25 24 23 23 23 22 22 21 20
26 26 26 26 25 25 24 22 21 20 19 19 19 18 18 18 19 20 22 24 26 26 27 27 27 27 28 28 29 31 33 33 34 36 35 33 33 35 37 36 35 35 36 36 36 36 36 36 36 36 35 34 33 32 32 32 31 30 30 30 29 29 30 30 29 28 28 27 27 27 27 27 27 27 26 26 26 25 25 24 24 24 23 23 22
28 28 27 27 26 25 24 23 22 20 20 19 19 19 19 18 19 20 21 23 24 25 26 27 27 27 27 27 27 28 31 33 34 36 36 35 34 35 37 38 37 36 36 37 37 36 35 36 37 36 36 36 35 34 34 33 33 32 31 30 30 30 30 31 30 29 29 29 28 28 28 28 28 28 27 27 27 27 26 26 26 26 25 25 24
29 29 29 28 27 26 25 25 23 22 21 20 20 20 20 20 20 20 21 22 23 24 25 26 27 28 27 27 27 27 29 32 34 35 36 37 37 36 35 36 37 37 36 37 37 36 34 35 37 37 37 39 38 37 36 35 34 34 32 31 31 31 31 31 31 30 30 29 29 29 28 29 29 28 28 28 28 28 27 27 27 27 27 27 26
30 30 30 30 29 28 27 26 25 24 23 22 21 21 21 21 21 21 21 22 23 24 24 25 26 27 28 28 28 28 29 32 33 34 35 37 38 38 35 34 34 36 36 36 37 36 34 35 37 38 38 39 40 40 38 36 36 35 33 32 32 32 33 32 31 31 31 30 30 29 29 29 29 29 29 29 29 29 29 28 28 29 29 28 28
31 31 31 31 31 30 29 27 26 26 25 25 23 23 22 23 23 22 22 22 23 23 24 24 25 26 27 28 29 28 29 31 32 34 36 37 37 38 37 35 34 34 35 36 37 36 36 36 37 38 38 39 41 42 40 39 38 37 35 33 33 34 34 33 32 31 31 31 30 30 30 30 30 30 30 30 30 30 29 30 30 30 30 30 30
32 32 32 32 32 32 31 30 28 27 28 27 26 25 25 24 24 24 25 25 25 24 24 24 24 25 25 27 28 29 29 29 30 32 34 36 37 37 37 37 36 34 34 35 36 37 37 37 37 38 38 39 41 42 41 40 39 37 36 35 34 35 34 33 33 32 32 32 31 31 31 31 31 31 31 31 31 30 31 31 31 31 32 32 32
33 33 33 33 33 33 33 33 31 30 30 29 29 28 27 27 27 27 27 27 27 27 26 25 25 25 25 25 27 29 29 29 29 30 31 33 35 36 37 37 38 37 35 34 35 36 38 39 38 39 39 39 40 41 41 42 40 38 37 37 36 35 34 34 34 34 33 33 33 33 32 32 32 32 32 32 31 31 31 32 32 32 33 34 34
35 35 35 35 35 35 35 35 34 33 32 31 31 31 30 30 30 30 30 30 29 29 28 28 27 26 25 25 25 28 30 29 28 29 30 31 32 34 35 37 38 38 37 36 35 34 36 38 39 39 40 40 40 40 41 42 42 40 39 39 37 35 35 35 36 35 35 34 34 34 34 33 33 33 32 32 32 32 32 32 33 33 33 34 35
36 37 37 37 37 37 37 37 37 36 35 33 33 33 33 32 32 32 32 32 31 31 30 30 29 28 27 26 25 26 28 29 28 29 30 31 32 32 33 35 38 39 39 38 37 35 34 35 38 40 40 40 39 39 40 43 44 43 41 40 37 35 35 36 37 37 36 35 35 35 35 34 34 34 33 33 32 32 32 33 33 34 34 35 35
37 37 38 38 38 39 39 39 38 38 37 36 35 34 34 34 34 34 33 33 33 33 32 31 31 30 29 27 27 27 27 28 28 28 30 31 32 32 32 32 35 38 39 39 39 37 34 33 36 39 39 39 39 38 39 42 43 43 42 41 38 36 37 38 39 38 37 37 37 37 36 36 35 35 34 34 33 33 33 34 34 34 34 35 35
39 39 39 40 40 41 41 41 41 40 39 38 37 37 36 35 35 34 34 34 34 34 34 33 33 32 31 30 29 29 28 28 28 29 30 30 31 32 32 31 33 36 38 39 39 39 37 34 34 37 38 38 39 39 39 40 41 42 44 43 39 38 39 39 39 39 38 37 37 37 36 36 35 35 35 35 34 34 34 34 35 35 35 35 36
40 40 41 41 42 43 43 44 44 43 42 41 40 39 38 38 37 36 35 34 34 35 35 35 35 34 33 32 31 31 31 30 29 29 30 31 31 31 31 31 33 35 37 39 38 39 39 37 35 35 37 38 39 40 40 41 41 42 44 45 43 41 40 40 40 40 39 38 37 37 37 36 36 36 36 36 35 35 35 35 36 36 36 35 36
41 41 42 42 43 44 45 45 46 46 45 44 43 42 41 40 39 39 38 36 35 35 36 37 37 36 36 35 33 32 32 32 32 31 31 32 32 31 30 31 33 35 36 38 38 39 39 40 38 36 37 38 39 40 41 42 43 43 44 45 46 42 40 42 43 42 41 39 38 38 38 37 37 37 37 37 36 36 36 36 36 36 36 36 37
42 42 43 43 44 45 46 47 47 48 48 47 46 45 44 43 42 41 40 39 38 37 36 37 38 38 38 37 36 35 34 34 34 33 33 33 33 32 31 31 32 34 36 37 38 39 40 41 40 38 38 39 40 40 41 41 42 43 43 44 46 45 42 44 44 42 41 42 40 39 39 39 38 38 38 38 37 36 37 37 37 37 37 37 38
43 43 44 44 45 46 47 48 49 49 49 49 49 48 46 45 44 44 43 42 41 40 38 37 38 40 40 40 39 38 37 36 35 35 35 35 35 34 32 32 33 34 35 36 36 38 40 41 41 40 40 40 40 41 41 40 40 41 43 44 46 47 46 45 44 42 42 43 43 42 41 40 40 40 39 39 38 38 39 39 39 39 38 39 40
44 44 45 45 46 47 48 49 50 50 50 50 50 50 49 48 47 46 45 45 44 43 42 40 39 39 41 41 41 41 40 39 37 37 37 36 37 36 34 33 34 34 35 35 35 36 39 41 42 42 42 41 42 42 42 41 40 41 43 45 47 48 48 47 45 44 43 43 45 45 43 42 41 41 40 40 39 40 40 40 40 40 40 41 41
45 45 46 46 47 47 48 49 50 50 51 51 51 51 52 51 50 49 48 47 47 46 45 44 42 41 40 41 42 42 42 41 40 39 39 38 38 38 36 35 35 35 35 35 35 36 37 39 42 43 43 42 43 43 42 41 41 41 43 46 48 48 48 47 46 46 45 45 47 48 46 45 44 44 43 43 42 42 42 42 42 42 42 42 42
46 47 47 47 47 47 48 49 49 50 50 50 51 51 52 52 52 52 51 50 49 49 48 47 46 44 42 41 41 42 42 42 41 40 40 39 39 39 38 37 36 36 36 36 36 36 36 38 41 43 43 43 43 42 42 42 42 42 43 46 48 49 50 48 46 46 47 47 48 49 47 46 47 46 45 45 44 44 44 44 44 44 44 43 44
46 46 46 47 47 48 48 49 50 50 50 51 51 51 52 52 53 53 53 52 51 51 50 50 49 47 46 44 43 42 42 42 42 41 40 40 40 40 40 39 37 37 36 36 36 36 36 38 40 42 43 43 42 42 42 42 42 43 45 45 45 47 49 48 47 48 49 48 49 49 47 47 49 48 47 47 46 46 46 46 46 46 45 45 45
46 47 48 49 50 51 52 52 53 53 54 54 54 54 53 53 54 54 54 54 53 53 52 52 51 50 49 47 46 44 44 44 43 42 41 40 40 40 41 40 39 38 37 37 36 36 37 37 39 41 42 43 42 42 42 43 43 43 44 45 44 45 46 48 49 51 51 51 51 50 48 48 50 52 52 51 50 49 47 47 47 47 47 46 45
50 51 53 54 55 56 56 57 58 58 59 59 59 59 59 58 57 57 56 55 55 54 54 54 53 53 51 50 49 48 46 45 45 44 43 41 40 40 41 41 41 39 38 37 37 37 37 37 38 40 41 42 42 42 42 43 43 43 43 44 44 45 47 49 52 53 54 54 53 51 49 50 51 53 54 54 54 52 50 48 48 48 47 46 46
53 54 55 56 56 57 58 59 59 60 61 62 62 62 63 63 63 62 61 60 58 57 55 54 54 54 53 52 51 50 48 47 46 45 44 42 41 40 41 42 43 42 39 38 37 38 38 38 39 40 41 42 42 43 43 44 44 43 42 42 43 44 46 48 51 51 51 53 53 51 50 51 52 52 54 54 53 52 50 49 48 48 48 47 47
52 53 54 54 55 55 56 57 58 59 60 61 62 63 64 65 65 65 65 65 64 62 60 58 56 55 54 53 52 51 49 47 47 46 44 43 42 42 41 42 43 43 41 39 38 39 38 38 39 40 41 42 42 43 44 44 43 43 42 41 42 43 45 46 47 47 48 50 52 50 49 52 52 53 55 56 54 52 51 49 48 48 48 48 47
50 51 51 52 52 53 54 55 56 57 58 59 60 62 63 64 66 67 67 67 66 65 64 63 61 58 55 54 53 51 49 48 48 46 44 43 43 43 41 41 42 43 42 41 39 39 39 39 39 40 41 42 42 43 44 44 43 43 43 43 42 43 45 47 46 46 47 49 51 50 49 52 53 53 56 57 57 57 54 49 47 47 47 47 46
47 47 48 49 50 50 51 52 53 54 56 57 58 59 60 62 63 65 66 67 67 67 66 64 64 62 60 56 54 52 50 49 49 47 44 42 43 43 42 41 41 42 42 42 41 40 39 39 38 39 41 41 41 42 44 44 44 44 43 43 43 44 46 47 47 47 48 49 50 49 50 52 52 53 57 59 59 59 55 50 48 48 47 46 44
Wind_Direction
300 296 292 289 290 292 295 296 297 298 299 301 304 308 310 310 305 292 273 261 259 260 255 249 245 243 247 258 268 275 276 273 272 271 266 258 258 261 264 263 258 258 263 269 274 277 279 281 284 286 289 295 297 290 279 269 265 255 229 206 199 176 165 158 151 159 175 196 215 242 267 279 287 281 265 248 231 196 143 130 133 130 123 125 133
298 297 295 290 288 289 291 292 294 298 298 298 299 303 308 308 304 299 287 270 255 253 256 253 247 241 238 242 256 266 271 271 269 268 264 256 254 258 262 263 260 259 263 269 273 277 279 281 281 281 285 295 296 286 269 252 225 190 169 162 167 166 164 160 149 156 182 215 246 263 276 284 280 261 235 208 182 157 142 139 140 140 136 145 171
300 299 296 293 290 288 289 291 294 296 296 297 299 302 305 306 303 300 296 283 263 251 253 257 251 242 236 233 240 253 261 264 263 263 262 257 254 257 263 265 262 259 262 267 273 276 277 277 277 277 282 290 292 279 258 237 202 174 164 161 166 171 174 171 166 171 195 225 243 255 267 266 246 215 193 177 166 154 147 148 153 163 163 167 171
295 293 293 293 291 289 288 288 289 290 291 293 296 300 303 304 304 300 296 288 274 259 253 256 252 244 239 234 235 243 250 255 257 258 261 258 255 258 261 264 264 261 259 262 269 273 274 273 271 273 279 284 284 270 250 231 202 178 168 168 175 183 187 185 180 183 196 212 225 236 242 229 210 194 180 171 166 159 156 164 178 185 173 164 155
287 287 289 292 295 295 293 290 287 287 288 290 292 297 301 304 305 302 296 289 280 267 256 256 254 246 240 238 240 242 241 246 251 247 248 250 248 251 257 260 263 261 258 258 262 269 272 271 270 271 274 276 274 259 244 229 208 189 180 179 185 193 196 194 190 190 195 200 204 212 216 205 193 187 180 174 171 167 168 175 181 177 168 160 152
283 283 288 294 297 298 298 298 295 291 290 291 293 295 299 304 305 301 297 291 283 271 257 253 254 252 244 240 242 243 240 241 249 246 239 241 245 250 256 260 262 260 256 254 257 263 267 268 268 269 269 270 265 246 236 229 214 203 195 191 195 201 204 202 197 193 194 198 200 201 202 195 188 189 185 178 175 172 173 175 175 172 169 169 165
287 285 288 293 296 298 300 301 301 298 294 292 293 294 297 303 305 301 298 295 288 275 260 253 254 255 251 244 241 240 239 241 248 251 243 240 251 259 259 260 262 261 255 252 253 256 260 264 264 265 263 262 259 240 230 227 220 216 212 207 207 210 212 211 205 197 195 198 203 203 199 194 190 191 190 182 176 172 174 178 178 178 181 186 186
293 291 291 294 298 300 301 302 304 303 299 295 293 294 297 300 303 303 301 299 293 282 268 258 256 255 251 246 243 242 242 241 245 251 250 248 254 263 264 263 263 262 258 251 251 254 255 259 260 260 258 255 254 242 229 224 223 222 223 224 223 223 223 220 214 206 200 201 206 206 202 198 194 193 192 186 181 178 182 188 188 193 200 205 205
299 297 297 299 302 303 303 303 303 303 301 297 293 293 295 298 300 302 303 300 293 285 275 265 260 258 253 248 247 246 246 244 242 247 252 254 257 261 263 266 265 261 260 253 248 251 253 254 255 255 254 251 249 243 232 225 224 226 229 232 235 235 234 230 222 215 209 205 207 209 207 204 200 198 196 194 194 192 197 201 201 207 213 215 213
302 301 302 302 303 304 305 304 303 303 301 299 296 294 294 296 297 299 300 298 292 286 279 271 265 261 258 254 251 248 246 246 243 244 250 254 257 258 256 260 263 260 259 255 248 247 250 251 252 251 250 248 244 241 235 228 225 228 231 234 239 240 239 237 231 225 218 211 209 211 210 209 205 204 205 207 209 209 211 214 214 217 219 218 215
302 302 303 303 303 304 304 304 304 305 304 303 301 298 297 296 297 298 298 296 293 289 284 278 272 266 261 259 256 250 247 248 246 245 249 251 253 254 251 250 256 258 254 253 249 245 246 248 249 247 246 245 241 237 235 230 226 227 233 236 237 238 239 240 238 234 229 222 216 214 214 213 212 212 213 216 220 221 222 222 222 222 220 217 215
298 299 301 302 303 304 303 303 304 304 304 304 303 302 299 297 298 299 298 296 293 291 289 286 282 275 266 261 257 252 249 249 249 248 249 251 253 253 250 245 248 253 249 248 248 244 243 244 245 245 243 242 240 236 233 231 227 227 232 236 235 235 237 240 241 240 236 231 226 222 219 218 219 220 220 223 224 226 228 228 227 225 220 217 214
295 297 299 301 302 303 304 304 303 302 301 301 300 300 298 296 296 299 300 299 296 292 290 288 287 282 274 265 258 252 249 249 251 250 250 252 251 250 251 244 243 249 247 244 246 243 241 240 241 242 241 240 239 236 232 231 229 227 228 233 234 233 235 239 240 241 240 237 234 230 226 224 224 227 227 228 229 228 229 230 231 226 223 220 215
293 295 298 300 302 302 303 303 302 301 300 298 296 296 295 293 291 294 298 298 296 293 290 287 286 285 282 276 266 257 252 249 249 250 251 251 248 247 250 244 243 250 248 243 245 244 241 239 239 240 239 238 238 236 232 230 229 227 227 231 234 233 234 237 239 240 241 240 238 235 231 229 229 229 229 231 232 232 231 231 231 229 226 224 218
292 295 297 299 300 301 301 301 300 300 298 295 294 293 293 292 290 291 294 294 292 290 289 286 282 281 283 281 274 267 261 255 250 248 249 250 251 249 248 244 245 251 250 245 244 243 242 240 239 238 237 236 236 235 232 231 231 230 229 231 233 235 235 236 237 239 241 241 240 238 236 233 232 231 231 233 234 234 234 233 233 231 230 229 224
293 294 296 297 297 298 299 298 298 299 296 293 292 291 292 293 293 293 293 291 288 286 286 284 278 274 276 276 274 274 272 264 253 249 249 250 251 251 248 246 247 250 250 246 242 242 243 240 239 238 237 235 235 235 232 230 231 231 231 232 233 235 236 236 237 238 239 240 240 239 238 237 235 233 232 234 235 235 236 237 238 236 233 233 230
293 294 294 295 296 297 298 298 298 298 295 292 292 292 292 293 293 292 291 289 288 286 284 280 274 271 271 271 270 271 273 270 260 252 250 248 248 249 248 248 247 247 248 246 242 239 240 241 239 238 237 236 235 234 232 230 231 231 231 233 234 235 235 236 238 239 238 238 239 238 239 238 236 234 234 235 236 237 238 240 242 241 239 237 236
292 292 293 294 296 297 298 299 299 298 295 293 293 293 293 291 288 286 286 287 288 288 285 280 275 271 269 269 268 268 270 273 270 261 252 247 246 248 248 246 246 245 245 245 243 238 238 238 238 237 237 237 235 234 232 230 230 230 230 232 233 233 234 236 239 240 239 237 237 238 239 239 237 234 235 236 238 240 240 241 243 244 244 242 241
291 292 293 295 297 299 300 301 300 299 296 295 295 293 291 289 287 285 285 287 287 287 285 282 277 271 268 267 265 265 266 268 272 268 258 250 246 247 247 245 244 245 244 244 243 239 237 236 235 235 235 236 237 235 233 231 230 230 230 230 232 232 233 236 239 240 239 237 237 238 239 239 237 235 235 237 239 241 242 242 242 244 246 246 246
293 293 295 297 299 301 302 301 301 300 298 297 296 293 291 291 290 290 290 290 288 285 284 283 279 273 270 267 264 264 264 263 265 268 263 255 248 246 246 244 242 243 244 244 241 239 239 237 235 234 233 235 237 236 234 232 231 230 230 229 231 233 233 235 238 239 239 238 237 237 238 239 238 236 237 239 240 241 242 243 243 243 245 248 248
295 297 299 300 301 302 303 302 301 300 299 298 296 295 295 295 294 294 294 293 290 287 285 283 280 276 272 269 265 264 263 262 262 265 264 258 250 245 244 244 242 242 243 244 242 240 240 241 239 235 233 233 236 237 235 233 232 231 230 229 229 232 234 234 236 238 238 237 237 238 238 239 239 238 239 240 241 241 241 242 243 244 245 247 248
298 300 302 302 303 304 304 303 302 302 300 298 296 296 297 296 296 298 298 297 294 290 287 284 279 276 273 271 268 263 259 259 262 264 264 260 252 246 245 245 242 240 243 245 244 242 241 243 242 239 236 234 234 236 236 235 234 233 231 230 229 232 234 235 236 238 237 237 237 238 238 239 240 240 240 241 241 242 242 242 243 245 245 246 248
300 301 302 302 302 303 304 304 304 302 300 298 298 298 298 297 298 300 301 300 298 295 292 287 282 276 273 271 270 266 258 255 259 263 264 262 255 249 246 245 242 241 244 246 247 246 243 242 243 240 237 235 233 235 237 237 235 234 233 232 230 231 234 234 236 238 238 238 238 239 239 240 241 242 242 242 243 243 243 243 244 245 246 247 248
299 300 301 301 301 302 303 303 303 301 299 298 299 300 299 298 299 300 300 300 299 299 296 290 286 281 277 273 270 269 263 256 256 259 262 263 259 253 248 246 245 244 245 246 247 247 244 242 242 241 239 237 235 234 236 237 235 235 234 233 232 232 233 234 235 237 238 239 239 240 240 241 242 242 243 244 244 245 245 245 245 246 247 248 249
296 298 299 299 300 301 302 302 301 301 300 301 301 301 301 301 300 300 300 300 299 299 295 291 288 286 283 277 271 269 267 261 257 258 260 262 262 258 253 249 248 246 245 245 245 244 243 241 241 242 240 238 237 235 236 237 236 234 235 234 233 233 233 234 235 236 238 238 239 240 241 241 242 243 244 245 246 246 246 246 246 247 248 249 250
294 297 298 298 299 299 300 299 299 298 299 300 302 303 304 304 303 302 301 301 300 299 295 291 289 287 286 282 274 269 267 264 260 258 259 260 261 261 258 253 251 249 247 246 245 243 241 239 239 240 239 237 237 237 237 237 237 235 235 235 235 234 234 235 235 236 237 238 239 241 242 242 242 243 245 246 247 247 247 247 248 249 249 250 251
293 295 297 298 297 297 297 296 295 294 293 295 298 301 302 304 305 305 305 304 303 301 297 293 290 288 287 284 278 272 268 265 262 261 263 262 260 262 261 258 255 252 250 249 247 244 240 239 238 238 238 237 237 238 238 238 239 237 236 237 237 236 236 236 236 236 237 238 238 240 243 243 243 244 245 246 247 248 248 248 249 250 251 251 251
292 294 295 296 296 296 294 293 292 289 287 289 292 296 299 301 304 306 307 308 308 306 301 295 291 288 287 283 279 276 272 268 266 265 264 263 262 264 265 261 257 254 252 251 250 247 242 240 238 237 236 236 237 238 238 238 239 239 238 238 239 238 238 237 237 236 237 238 238 239 242 244 244 244 245 246 247 248 248 248 250 251 252 252 252
291 293 294 295 295 295 293 291 289 285 282 282 285 290 294 297 300 302 305 308 310 310 306 300 294 290 288 284 280 276 273 270 269 268 265 264 264 266 267 263 258 255 253 251 251 250 246 242 239 237 236 236 237 239 238 238 239 239 237 237 238 239 239 239 238 237 237 237 238 239 241 244 245 245 245 246 247 248 249 249 250 251 252 253 254
292 293 293 294 294 294 292 290 287 283 280 278 279 283 287 291 295 298 302 305 308 309 308 304 298 293 290 287 284 279 275 272 271 270 269 268 267 267 267 266 262 258 254 251 251 251 249 245 242 240 238 237 238 239 238 238 239 240 238 235 237 238 240 240 239 238 237 237 237 239 241 243 244 245 245 246 247 248 250 250 251 252 253 254 254
293 293 293 293 293 293 291 289 286 282 279 276 276 277 280 284 289 293 297 300 302 304 305 305 301 296 292 289 287 284 279 276 274 271 271 271 271 269 267 266 266 263 257 252 251 250 250 248 245 244 242 240 239 239 239 238 239 240 240 238 237 239 240 241 240 240 238 237 237 238 240 242 243 245 245 245 247 248 250 251 252 253 254 255 255
293 293 294 293 292 291 291 288 285 281 278 275 274 275 276 279 284 288 291 294 296 297 299 300 300 298 295 291 289 287 283 280 278 275 274 274 273 272 270 267 265 264 260 256 254 252 251 250 248 246 245 243 242 240 240 240 240 240 241 241 240 241 241 241 242 241 240 238 237 238 239 241 242 244 245 246 247 248 250 251 252 253 254 255 256
293 293 293 293 292 290 289 288 285 281 278 276 274 273 274 276 279 282 285 288 290 292 294 295 295 296 296 293 290 288 286 283 281 279 278 277 276 276 275 271 266 264 262 259 258 256 253 251 249 248 246 245 244 242 240 241 240 239 240 241 241 241 242 242 242 242 241 239 238 238 239 240 241 243 245 246 247 248 249 250 252 253 254 255 256
293 293 292 292 292 291 289 288 286 283 280 278 276 274 273 275 276 279 281 284 286 287 288 289 290 291 292 293 292 290 288 286 284 282 280 278 277 277 276 273 268 265 263 261 260 259 256 250 248 248 247 245 245 244 241 240 240 238 237 237 239 241 240 240 242 242 241 241 240 240 240 239 240 242 243 245 247 248 250 251 251 252 254 255 256
291 291 291 291 291 290 289 288 286 284 282 280 278 275 274 274 275 276 277 279 282 283 284 285 285 285 286 288 289 289 289 289 287 285 282 280 278 277 276 273 268 265 264 261 260 260 259 252 247 246 246 244 246 247 243 239 238 239 238 237 237 240 240 239 240 241 240 240 241 241 241 241 240 241 243 244 246 248 250 251 252 253 254 255 257
291 290 290 289 289 288 288 287 285 284 283 281 279 278 276 275 275 275 275 275 277 279 280 281 282 282 282 283 284 285 286 288 289 287 285 283 280 278 276 274 270 266 264 262 260 259 259 255 249 246 245 244 246 248 244 240 239 239 241 240 237 238 241 240 240 241 240 241 241 241 242 242 242 242 243 244 245 247 249 251 252 253 254 256 257
292 291 291 290 289 288 288 287 286 284 283 282 281 280 278 277 276 275 273 273 274 275 277 278 278 279 279 279 280 282 283 284 286 287 287 286 283 280 278 276 272 267 263 262 261 259 258 257 253 248 245 244 245 246 245 245 243 240 241 242 237 234 238 240 241 242 242 242 242 243 243 244 244 243 243 244 245 247 249 251 252 254 255 256 258
293 292 292 291 290 290 289 288 287 286 285 283 281 280 280 279 277 276 274 273 272 272 273 275 275 275 276 276 276 278 280 281 282 283 285 286 285 284 281 277 273 269 264 261 260 259 257 257 255 250 246 245 245 245 244 245 246 244 243 242 238 234 234 237 240 242 243 243 243 243 243 243 243 243 243 244 245 246 248 250 252 254 255 257 258
293 292 292 291 290 290 290 289 288 288 286 285 284 282 281 280 279 278 277 275 273 271 271 272 273 273 273 273 273 274 276 278 279 280 281 283 284 285 283 280 275 270 266 261 258 257 256 256 256 253 249 247 247 248 246 245 246 246 245 243 240 236 235 236 238 240 243 244 242 242 242 242 242 242 242 244 245 247 249 250 252 254 256 257 258
292 292 291 291 290 290 289 289 289 288 287 287 285 284 283 281 280 279 278 277 276 274 271 269 270 271 271 271 271 271 271 274 276 278 279 279 281 282 283 281 277 271 267 263 259 256 255 256 256 254 251 249 249 250 250 249 247 247 247 246 242 239 238 239 240 239 241 244 243 242 243 243 243 243 244 245 247 248 250 251 252 254 255 256 257
292 292 291 290 290 290 290 289 289 288 287 287 286 285 284 283 281 280 279 278 277 276 274 271 268 268 269 269 270 270 269 270 271 274 276 277 278 279 280 281 279 275 270 267 262 257 256 257 257 254 252 250 250 250 251 251 248 246 246 246 243 241 240 241 241 239 240 243 244 243 244 245 245 244 243 244 246 248 250 251 252 253 254 255 258
292 291 291 290 290 289 289 289 288 288 287 287 286 285 284 283 282 280 279 278 277 276 275 273 270 268 267 267 268 268 268 268 268 269 272 274 275 276 277 278 279 278 274 270 267 262 257 256 256 254 252 251 250 249 249 250 248 245 244 245 244 241 240 240 241 239 239 240 242 243 246 247 246 244 244 245 248 250 251 252 253 254 255 256 258
292 291 290 290 290 289 289 288 287 287 287 286 286 285 284 283 282 281 279 278 277 276 275 274 273 270 268 266 266 266 267 267 266 266 267 269 272 273 274 274 276 278 277 274 271 267 263 258 256 255 254 252 250 248 248 248 248 247 245 245 244 242 240 240 240 240 240 239 240 242 245 247 247 246 246 248 250 251 251 252 252 253 254 256 257
292 292 291 291 291 290 289 288 287 286 286 285 285 284 284 283 282 281 279 278 277 276 275 274 273 272 269 267 265 264 265 265 265 265 264 266 268 270 272 272 273 275 277 277 274 271 267 263 259 256 254 252 251 249 248 248 248 249 248 247 245 243 241 240 240 240 240 239 239 241 244 245 246 246 247 249 250 250 250 251 252 253 254 256 257
294 294 294 293 292 291 290 289 288 287 286 285 284 284 283 282 281 280 279 278 276 275 274 273 273 272 270 268 266 264 263 263 264 264 264 264 265 266 269 270 271 272 274 276 275 273 270 266 262 258 255 252 251 249 248 247 247 248 249 248 247 245 243 242 243 242 240 238 239 240 242 242 244 247 248 249 249 248 248 250 252 254 255 255 257
297 296 296 295 294 293 292 290 289 288 287 286 285 284 283 282 281 280 279 278 276 274 273 272 271 270 270 269 267 265 264 263 262 262 263 263 263 264 266 268 270 271 272 273 274 273 271 267 263 259 256 252 250 249 248 247 247 246 247 249 249 246 245 245 246 245 243 240 239 239 239 240 244 249 251 252 251 248 247 250 253 255 255 255 258
299 298 297 296 295 294 292 291 290 289 287 286 285 284 283 282 281 279 278 277 277 275 273 272 270 269 268 267 267 266 265 264 263 262 261 262 262 263 264 266 268 269 270 271 271 272 270 267 263 259 256 253 250 249 249 248 248 247 246 249 250 247 245 245 246 245 244 241 239 238 238 239 243 248 251 253 252 249 249 253 256 255 254 256 260
300 299 298 297 296 295 294 293 291 290 289 287 286 285 283 282 280 279 278 276 276 275 274 272 271 269 268 266 265 265 264 264 262 262 261 261 260 261 262 263 265 266 267 269 269 269 269 268 263 258 256 253 251 249 249 248 248 247 246 249 251 247 245 247 248 246 244 242 240 239 238 239 241 243 247 249 248 247 250 256 257 254 254 258 262
301 300 299 298 297 297 296 295 293 292 291 289 288 286 284 283 281 279 278 276 274 273 273 272 271 269 268 266 265 264 264 262 261 260 260 260 259 258 259 261 262 263 266 268 268 267 267 267 264 259 255 253 250 249 249 248 248 247 244 246 249 250 249 252 253 248 244 242 241 239 240 242 241 242 244 246 246 248 253 257 257 254 256 259 261
303 303 302 302 301 300 300 299 297 296 294 292 290 287 285 283 281 279 277 276 274 272 271 270 269 269 268 266 265 264 262 262 261 260 258 258 258 257 257 258 260 262 264 266 267 266 266 266 264 260 255 252 250 249 249 249 248 247 244 242 245 248 250 252 253 248 243 242 241 239 240 244 244 242 243 244 246 249 253 256 255 254 256 259 260
307 307 307 307 307 306 306 305 303 302 300 297 295 292 289 285 282 280 277 275 273 272 270 269 268 267 266 266 265 263 262 261 261 260 258 256 256 257 256 256 258 260 263 264 265 265 265 266 266 262 256 253 251 249 249 249 248 248 246 244 244 246 248 250 248 244 242 241 240 238 241 244 245 243 242 244 246 249 252 255 253 254 256 258 259
Height
5836 5836 5835 5834 5833 5832 5831 5831 5830 5829 5829 5828 5828 5826 5825 5825 5824 5823 5823 5823 5823 5822 5822 5822 5822 5823 5823 5822 5821 5821 5822 5822 5821 5821 5820 5820 5819 5819 5818 5817 5817 5816 5815 5815 5814 5813 5813 5812 5812 5811 5810 5810 5810 5809 5808 5808 5807 5806 5806 5806 5806 5806 5806 5806 5806 5806 5805 5805 5805 5805 5805 5805 5804 5804 5804 5804 5804 5804 5804 5805 5805 5805 5805 5805 5805
5835 5835 5834 5834 5833 5832 5831 5830 5829 5828 5827 5827 5826 5825 5824 5823 5822 5821 5821 5821 5820 5820 5820 5820 5821 5822 5821 5821 5819 5819 5819 5820 5820 5819 5819 5818 5818 5818 5817 5817 5816 5815 5815 5814 5814 5813 5812 5811 5811 5810 5810 5809 5809 5808 5808 5807 5807 5806 5806 5806 5806 5806 5806 5805 5805 5805 5805 5805 5805 5805 5804 5804 5804 5804 5804 5804 5804 5804 5804 5804 5805 5805 5805 5805 5805
5834 5834 5833 5832 5832 5832 5831 5829 5828 5827 5826 5825 5824 5824 5823 5822 5821 5820 5819 5819 5818 5818 5818 5819 5819 5820 5819 5819 5818 5817 5817 5817 5817 5817 5817 5817 5817 5816 5816 5816 5815 5814 5814 5813 5813 5812 5812 5811 5810 5809 5809 5808 5808 5808 5808 5807 5807 5806 5806 5806 5806 5806 5805 5805 5805 5805 5805 5804 5804 5804 5804 5804 5804 5804 5804 5804 5804 5804 5804 5804 5805 5805 5805 5805 5805
5833 5832 5831 5831 5831 5830 5830 5828 5827 5826 5825 5824 5823 5822 5821 5820 5819 5818 5817 5817 5816 5817 5817 5817 5817 5817 5817 5818 5817 5816 5815 5815 5815 5815 5815 5816 5815 5815 5815 5815 5814 5814 5813 5812 5812 5812 5811 5810 5809 5809 5808 5808 5807 5807 5807 5807 5807 5806 5806 5806 5806 5805 5805 5805 5805 5804 5804 5804 5804 5804 5803 5803 5803 5804 5804 5804 5804 5804 5804 5804 5804 5805 5805 5805 5805
5832 5831 5830 5829 5829 5829 5828 5827 5826 5825 5824 5823 5821 5821 5820 5819 5818 5817 5816 5815 5815 5815 5815 5815 5815 5815 5816 5816 5816 5815 5814 5813 5812 5813 5813 5813 5814 5814 5814 5813 5813 5813 5812 5811 5811 5811 5810 5809 5809 5808 5807 5807 5807 5807 5807 5807 5807 5806 5806 5805 5805 5805 5805 5804 5804 5804 5804 5803 5803 5803 5803 5803 5803 5803 5803 5804 5804 5804 5804 5804 5804 5805 5805 5805 5805
5831 5830 5829 5828 5827 5827 5826 5826 5825 5824 5823 5821 5820 5819 5818 5817 5817 5816 5815 5814 5813 5813 5813 5813 5813 5813 5814 5814 5814 5814 5813 5812 5811 5811 5811 5811 5812 5812 5812 5812 5812 5812 5811 5810 5810 5809 5809 5809 5808 5807 5807 5806 5806 5806 5806 5806 5807 5806 5806 5805 5805 5805 5804 5804 5804 5804 5803 5803 5803 5803 5803 5803 5803 5803 5803 5803 5803 5804 5804 5804 5804 5804 5805 5805 5805
5830 5829 5828 5827 5826 5826 5825 5824 5824 5823 5822 5820 5819 5818 5816 5816 5815 5814 5813 5812 5812 5812 5811 5811 5811 5811 5812 5812 5812 5812 5812 5812 5811 5810 5810 5810 5810 5810 5810 5810 5810 5810 5810 5809 5808 5808 5808 5807 5807 5806 5806 5806 5805 5805 5806 5806 5806 5806 5806 5805 5805 5805 5804 5804 5804 5803 5803 5803 5802 5802 5803 5803 5803 5803 5803 5803 5803 5803 5804 5804 5804 5804 5805 5805 5805
5828 5828 5827 5826 5826 5825 5824 5823 5822 5822 5821 5820 5818 5816 5815 5814 5813 5812 5811 5811 5810 5809 5809 5808 5808 5808 5809 5810 5809 5809 5809 5810 5810 5810 5809 5808 5808 5808 5808 5808 5808 5808 5808 5807 5807 5807 5807 5806 5806 5805 5805 5805 5805 5805 5805 5805 5806 5806 5806 5805 5805 5805 5804 5804 5803 5803 5803 5802 5802 5802 5802 5802 5803 5803 5803 5803 5803 5803 5804 5804 5804 5804 5804 5805 5805
5827 5826 5826 5825 5824 5823 5822 5822 5821 5820 5819 5819 5817 5815 5813 5812 5811 5810 5810 5809 5808 5807 5806 5806 5805 5805 5806 5807 5808 5807 5807 5807 5808 5808 5808 5807 5806 5806 5807 5807 5806 5806 5806 5806 5805 5805 5805 5805 5805 5804 5804 5804 5804 5804 5804 5804 5805 5805 5805 5805 5805 5805 5804 5804 5803 5803 5802 5802 5802 5802 5802 5802 5802 5802 5802 5803 5803 5803 5803 5804 5804 5804 5804 5804 5804
5825 5825 5824 5823 5822 5821 5821 5820 5819 5818 5818 5817 5816 5814 5813 5811 5809 5808 5807 5807 5806 5805 5804 5803 5803 5803 5804 5805 5805 5805 5804 5804 5805 5806 5806 5805 5805 5804 5805 5805 5805 5805 5805 5804 5803 5804 5804 5804 5803 5803 5803 5803 5803 5803 5803 5803 5804 5804 5804 5804 5804 5804 5804 5804 5803 5803 5802 5802 5802 5802 5802 5802 5802 5802 5802 5802 5803 5803 5803 5803 5803 5803 5804 5804 5804
5824 5823 5822 5821 5821 5820 5819 5818 5818 5817 5816 5815 5814 5813 5811 5809 5808 5807 5806 5805 5804 5804 5802 5802 5801 5801 5801 5801 5801 5802 5802 5802 5802 5803 5804 5804 5803 5803 5803 5803 5803 5803 5802 5802 5802 5802 5802 5802 5802 5802 5802 5802 5802 5802 5803 5802 5802 5803 5804 5804 5804 5804 5804 5803 5803 5803 5802 5802 5801 5801 5801 5802 5802 5802 5802 5802 5802 5802 5803 5803 5803 5803 5803 5803 5803
5823 5822 5821 5820 5819 5819 5818 5817 5816 5815 5814 5813 5812 5811 5810 5808 5806 5805 5804 5803 5802 5802 5801 5800 5799 5799 5798 5798 5797 5798 5799 5799 5799 5800 5801 5801 5801 5801 5800 5800 5801 5800 5800 5800 5800 5800 5800 5800 5800 5800 5800 5800 5801 5801 5801 5801 5801 5802 5802 5803 5803 5803 5803 5803 5803 5802 5802 5801 5801 5801 5801 5801 5801 5801 5801 5801 5802 5802 5802 5802 5802 5802 5802 5802 5803
5822 5821 5820 5819 5818 5817 5817 5816 5815 5814 5813 5811 5810 5809 5808 5806 5805 5803 5802 5802 5801 5800 5799 5799 5798 5797 5796 5794 5794 5794 5795 5797 5797 5797 5797 5798 5798 5798 5797 5797 5798 5798 5798 5798 5798 5797 5797 5798 5798 5798 5798 5798 5799 5799 5800 5800 5800 5800 5801 5801 5802 5802 5802 5802 5802 5802 5802 5801 5801 5801 5801 5800 5800 5800 5801 5801 5801 5801 5801 5801 5801 5801 5801 5802 5802
5820 5819 5818 5817 5816 5816 5815 5814 5813 5812 5811 5810 5808 5807 5805 5804 5802 5801 5800 5799 5798 5798 5797 5796 5795 5794 5793 5792 5792 5791 5792 5793 5795 5794 5794 5795 5795 5795 5795 5795 5795 5795 5795 5796 5795 5795 5795 5795 5796 5796 5796 5796 5797 5797 5798 5798 5799 5799 5799 5800 5800 5800 5800 5800 5801 5801 5801 5801 5800 5800 5800 5800 5800 5800 5800 5800 5800 5800 5800 5800 5800 5800 5801 5801 5801
5818 5817 5816 5815 5815 5814 5813 5812 5811 5810 5809 5807 5806 5804 5803 5801 5800 5799 5797 5797 5796 5795 5794 5793 5792 5791 5790 5790 5790 5789 5789 5790 5791 5791 5791 5792 5792 5793 5793 5793 5793 5792 5793 5793 5793 5793 5793 5793 5793 5793 5794 5794 5794 5795 5796 5797 5797 5797 5798 5798 5798 5799 5799 5799 5799 5799 5800 5800 5800 5800 5799 5799 5799 5799 5799 5799 5799 5799 5799 5799 5799 5800 5800 5800 5800
5815 5815 5814 5814 5813 5812 5811 5810 5809 5808 5807 5805 5803 5802 5800 5799 5798 5796 5795 5793 5792 5792 5791 5791 5790 5788 5787 5787 5787 5787 5786 5787 5787 5787 5788 5789 5790 5791 5791 5791 5791 5790 5791 5791 5791 5791 5791 5791 5791 5791 5791 5792 5792 5793 5794 5794 5795 5795 5796 5796 5796 5797 5797 5797 5798 5798 5798 5798 5799 5799 5799 5799 5798 5798 5798 5798 5798 5798 5798 5799 5799 5799 5799 5799 5799
5813 5813 5812 5812 5812 5811 5809 5808 5807 5806 5804 5803 5801 5800 5798 5797 5795 5793 5791 5790 5789 5789 5788 5787 5786 5785 5785 5785 5784 5784 5784 5784 5784 5784 5785 5786 5787 5788 5788 5788 5788 5788 5788 5788 5788 5788 5788 5789 5789 5789 5789 5789 5790 5790 5791 5792 5793 5793 5794 5794 5794 5795 5795 5796 5796 5796 5797 5797 5797 5798 5798 5798 5797 5797 5797 5797 5797 5797 5797 5798 5798 5798 5798 5798 5799
5811 5811 5811 5810 5810 5808 5807 5806 5804 5803 5801 5800 5799 5797 5796 5794 5792 5790 5788 5787 5786 5786 5785 5784 5783 5783 5782 5782 5782 5782 5782 5781 5780 5781 5781 5782 5783 5784 5784 5784 5785 5785 5786 5786 5785 5785 5786 5786 5786 5786 5786 5787 5788 5788 5789 5790 5791 5791 5791 5792 5792 5793 5793 5794 5794 5795 5795 5795 5796 5796 5797 5797 5796 5796 5796 5796 5796 5796 5796 5797 5797 5797 5797 5797 5798
5809 5809 5809 5808 5807 5806 5804 5803 5801 5800 5798 5797 5796 5794 5793 5791 5789 5787 5785 5784 5783 5782 5781 5780 5780 5780 5778 5778 5779 5778 5779 5778 5778 5777 5777 5778 5780 5780 5781 5781 5782 5782 5783 5783 5783 5783 5783 5783 5783 5783 5783 5784 5785 5786 5787 5787 5788 5789 5789 5790 5790 5790 5791 5792 5792 5793 5793 5793 5794 5795 5795 5795 5795 5795 5795 5795 5795 5795 5795 5795 5796 5796 5796 5796 5797
5807 5807 5806 5805 5804 5803 5802 5800 5798 5797 5796 5794 5793 5791 5789 5788 5786 5784 5783 5781 5780 5779 5778 5776 5776 5776 5775 5774 5775 5774 5774 5775 5774 5774 5774 5774 5775 5776 5777 5777 5778 5779 5779 5779 5780 5780 5779 5780 5780 5780 5781 5782 5783 5784 5784 5785 5786 5786 5787 5787 5788 5788 5789 5790 5790 5790 5791 5791 5792 5793 5793 5794 5794 5794 5794 5794 5794 5794 5794 5794 5794 5794 5795 5795 5795
5804 5803 5803 5802 5801 5800 5799 5797 5796 5794 5793 5791 5789 5787 5785 5784 5783 5782 5781 5779 5777 5776 5775 5774 5773 5773 5772 5771 5772 5771 5771 5771 5771 5770 5770 5771 5771 5772 5773 5773 5774 5776 5775 5775 5776 5777 5777 5777 5778 5778 5778 5779 5780 5781 5782 5782 5783 5784 5784 5785 5785 5786 5786 5787 5788 5788 5789 5789 5790 5791 5791 5792 5792 5792 5792 5792 5792 5792 5792 5793 5793 5793 5793 5794 5794
5801 5800 5800 5799 5798 5797 5796 5794 5793 5791 5789 5787 5785 5784 5782 5781 5780 5779 5778 5776 5775 5773 5772 5771 5770 5770 5769 5768 5769 5768 5768 5768 5768 5768 5767 5767 5768 5769 5769 5769 5770 5771 5771 5771 5773 5774 5775 5775 5776 5776 5776 5776 5777 5778 5779 5780 5780 5781 5782 5782 5783 5783 5784 5785 5785 5786 5786 5787 5788 5789 5789 5790 5790 5790 5791 5791 5791 5791 5791 5791 5791 5792 5792 5792 5792
5798 5797 5796 5796 5795 5794 5793 5791 5790 5788 5786 5784 5782 5781 5780 5778 5777 5775 5774 5773 5772 5770 5769 5768 5767 5766 5765 5765 5766 5765 5765 5764 5764 5764 5764 5764 5765 5765 5766 5765 5766 5767 5767 5768 5769 5771 5772 5773 5773 5773 5774 5774 5774 5775 5776 5777 5778 5778 5779 5780 5780 5780 5781 5782 5783 5783 5784 5785 5785 5786 5787 5788 5788 5788 5789 5789 5789 5789 5789 5789 5790 5790 5790 5790 5790
5795 5794 5794 5793 5792 5791 5790 5788 5787 5786 5784 5782 5780 5778 5777 5775 5774 5772 5771 5769 5768 5767 5766 5765 5763 5763 5762 5762 5762 5762 5761 5761 5761 5760 5761 5761 5761 5762 5762 5762 5762 5764 5764 5765 5766 5767 5769 5770 5770 5770 5771 5771 5771 5772 5773 5774 5775 5775 5776 5777 5777 5778 5778 5779 5780 5780 5781 5782 5783 5783 5784 5785 5786 5786 5786 5787 5787 5787 5788 5788 5788 5788 5788 5788 5788
5792 5791 5790 5790 5788 5787 5786 5785 5784 5782 5781 5779 5778 5776 5775 5773 5771 5769 5767 5766 5765 5764 5763 5762 5761 5760 5759 5759 5759 5759 5758 5758 5758 5757 5757 5758 5758 5758 5758 5758 5759 5760 5760 5760 5761 5763 5765 5766 5767 5767 5768 5768 5769 5769 5770 5771 5771 5772 5773 5774 5774 5775 5775 5776 5776 5777 5778 5779 5780 5781 5781 5782 5783 5784 5784 5785 5785 5785 5786 5786 5786 5786 5786 5786 5786
5789 5788 5787 5786 5785 5784 5783 5782 5781 5780 5778 5776 5775 5773 5772 5770 5768 5766 5765 5763 5762 5761 5760 5759 5758 5757 5756 5756 5756 5756 5755 5755 5755 5754 5754 5754 5754 5754 5754 5755 5755 5756 5756 5757 5757 5759 5760 5762 5762 5762 5764 5765 5766 5766 5767 5767 5768 5769 5770 5770 5771 5772 5773 5773 5774 5774 5775 5776 5777 5778 5778 5779 5780 5781 5781 5782 5783 5783 5784 5784 5784 5784 5784 5784 5784
5785 5785 5784 5783 5782 5781 5780 5779 5778 5777 5775 5774 5772 5771 5769 5767 5766 5764 5762 5760 5759 5758 5756 5755 5754 5753 5753 5752 5752 5752 5751 5752 5751 5750 5750 5750 5750 5750 5750 5751 5751 5752 5752 5753 5753 5755 5757 5758 5758 5759 5761 5762 5762 5763 5763 5764 5764 5766 5767 5767 5768 5769 5770 5770 5771 5771 5772 5773 5774 5775 5775 5776 5777 5778 5779 5779 5780 5780 5781 5782 5782 5782 5782 5782 5782
5782 5781 5780 5780 5779 5778 5777 5776 5775 5774 5772 5771 5769 5768 5766 5765 5763 5761 5759 5758 5756 5755 5753 5752 5751 5750 5749 5748 5748 5748 5747 5747 5747 5747 5746 5746 5746 5746 5746 5746 5747 5747 5748 5749 5749 5751 5753 5753 5754 5755 5757 5757 5758 5759 5759 5760 5761 5762 5763 5764 5765 5766 5767 5767 5768 5768 5769 5770 5771 5772 5772 5773 5774 5775 5776 5776 5777 5778 5778 5779 5779 5779 5780 5780 5780
5778 5777 5777 5776 5775 5774 5773 5772 5771 5770 5769 5768 5767 5765 5763 5762 5760 5759 5757 5756 5754 5752 5751 5750 5748 5747 5746 5745 5745 5745 5743 5743 5743 5743 5743 5743 5742 5742 5742 5742 5742 5743 5744 5745 5746 5747 5749 5749 5750 5751 5752 5753 5754 5754 5755 5757 5757 5758 5760 5761 5761 5762 5763 5764 5765 5765 5766 5766 5767 5768 5769 5770 5771 5772 5772 5773 5774 5775 5775 5776 5776 5776 5777 5777 5777
5774 5774 5773 5772 5771 5771 5770 5769 5768 5767 5766 5765 5764 5762 5761 5759 5758 5756 5755 5753 5752 5750 5748 5747 5746 5745 5744 5743 5742 5742 5740 5739 5739 5739 5739 5739 5738 5738 5738 5738 5738 5739 5740 5741 5742 5744 5745 5745 5746 5747 5748 5749 5750 5750 5751 5753 5753 5754 5756 5757 5758 5758 5759 5761 5762 5762 5762 5763 5764 5765 5766 5767 5768 5768 5769 5770 5771 5772 5772 5773 5773 5773 5774 5774 5774
5770 5769 5769 5768 5767 5766 5766 5765 5764 5763 5762 5761 5760 5759 5758 5756 5755 5753 5752 5751 5749 5748 5746 5745 5743 5742 5741 5740 5739 5738 5737 5736 5736 5735 5735 5735 5735 5735 5735 5735 5735 5735 5736 5737 5738 5740 5741 5741 5742 5743 5744 5745 5745 5746 5747 5748 5750 5751 5753 5754 5754 5755 5756 5757 5759 5759 5759 5760 5760 5761 5762 5763 5764 5765 5766 5767 5767 5768 5769 5769 5770 5770 5770 5771 5771
5766 5765 5765 5764 5763 5762 5761 5761 5760 5759 5758 5757 5756 5755 5754 5753 5752 5750 5749 5748 5747 5745 5744 5742 5741 5739 5738 5737 5736 5735 5734 5733 5732 5732 5731 5731 5731 5731 5731 5731 5731 5731 5732 5732 5733 5735 5736 5736 5737 5739 5740 5741 5741 5742 5743 5744 5746 5748 5750 5751 5751 5751 5752 5754 5755 5756 5756 5756 5757 5757 5758 5759 5760 5761 5762 5763 5764 5765 5765 5766 5766 5766 5767 5767 5767
5761 5761 5760 5759 5759 5758 5757 5757 5756 5755 5754 5753 5752 5751 5750 5749 5748 5747 5746 5745 5743 5742 5741 5739 5738 5737 5736 5735 5733 5731 5730 5729 5729 5728 5727 5726 5726 5726 5727 5727 5727 5728 5728 5728 5729 5730 5731 5732 5732 5733 5735 5736 5737 5738 5740 5740 5742 5745 5746 5747 5747 5748 5749 5751 5751 5752 5753 5753 5753 5753 5754 5755 5756 5757 5758 5759 5760 5761 5762 5762 5762 5763 5763 5763 5764
5757 5756 5756 5755 5754 5754 5753 5752 5751 5750 5749 5748 5748 5747 5746 5745 5744 5743 5742 5741 5740 5739 5738 5736 5735 5734 5732 5731 5730 5728 5726 5726 5726 5724 5723 5722 5722 5722 5722 5722 5723 5723 5724 5724 5724 5725 5726 5727 5727 5728 5729 5731 5732 5734 5735 5736 5737 5739 5741 5742 5742 5744 5746 5746 5747 5748 5749 5749 5750 5750 5750 5752 5753 5753 5754 5755 5756 5757 5758 5758 5758 5759 5759 5759 5760
5753 5752 5751 5750 5750 5749 5748 5747 5747 5746 5745 5744 5743 5742 5741 5741 5740 5739 5738 5737 5736 5735 5734 5732 5731 5730 5729 5728 5727 5725 5723 5722 5722 5721 5720 5718 5718 5717 5717 5717 5717 5718 5719 5719 5719 5720 5721 5722 5722 5723 5724 5726 5727 5729 5730 5731 5731 5732 5735 5737 5738 5740 5741 5742 5742 5743 5744 5745 5745 5746 5747 5748 5749 5750 5750 5751 5752 5753 5754 5754 5755 5755 5755 5755 5756
5748 5747 5746 5746 5745 5744 5744 5743 5742 5741 5740 5739 5738 5737 5736 5736 5735 5734 5733 5732 5731 5730 5729 5728 5727 5726 5725 5724 5723 5721 5720 5719 5718 5717 5716 5715 5714 5713 5713 5713 5712 5713 5714 5714 5714 5715 5716 5717 5718 5718 5719 5721 5723 5724 5725 5726 5726 5728 5729 5731 5734 5736 5737 5737 5738 5738 5739 5740 5740 5742 5743 5744 5745 5746 5746 5747 5748 5749 5750 5750 5751 5751 5751 5752 5752
5744 5743 5741 5740 5740 5739 5738 5737 5737 5736 5735 5734 5733 5732 5731 5730 5730 5729 5728 5727 5726 5725 5724 5723 5722 5721 5720 5720 5719 5717 5716 5715 5714 5713 5711 5710 5710 5709 5708 5708 5708 5708 5708 5709 5710 5710 5711 5713 5713 5714 5715 5716 5718 5719 5720 5721 5722 5724 5724 5725 5729 5731 5731 5732 5734 5734 5734 5735 5736 5738 5739 5740 5741 5742 5743 5743 5744 5745 5746 5746 5747 5747 5747 5748 5748
5739 5738 5736 5735 5734 5733 5732 5731 5730 5730 5729 5728 5727 5726 5725 5724 5724 5723 5723 5722 5722 5720 5719 5718 5717 5716 5716 5715 5714 5713 5711 5710 5710 5709 5707 5706 5705 5704 5704 5704 5703 5703 5703 5704 5705 5705 5706 5707 5708 5709 5710 5712 5713 5714 5716 5717 5718 5719 5719 5720 5722 5725 5726 5727 5728 5729 5729 5731 5732 5733 5734 5736 5737 5738 5738 5739 5739 5740 5741 5742 5742 5743 5743 5744 5744
5734 5733 5731 5730 5729 5728 5726 5725 5724 5724 5723 5722 5721 5720 5720 5719 5718 5717 5717 5716 5716 5715 5714 5713 5712 5711 5710 5710 5709 5708 5707 5706 5705 5704 5703 5702 5701 5700 5700 5699 5699 5698 5698 5699 5699 5700 5701 5702 5703 5704 5705 5706 5707 5709 5710 5712 5712 5714 5715 5715 5716 5719 5721 5722 5722 5724 5725 5726 5727 5728 5730 5731 5732 5733 5734 5734 5735 5736 5737 5737 5738 5738 5739 5739 5740
5729 5728 5726 5725 5723 5722 5721 5720 5719 5717 5716 5715 5715 5714 5713 5712 5712 5711 5710 5710 5710 5709 5709 5708 5707 5706 5705 5704 5703 5703 5702 5701 5700 5699 5698 5697 5696 5696 5696 5695 5694 5693 5693 5693 5694 5695 5695 5696 5698 5699 5699 5701 5702 5703 5705 5706 5707 5709 5710 5712 5712 5714 5716 5717 5718 5720 5720 5720 5722 5723 5724 5726 5727 5728 5729 5730 5731 5732 5732 5733 5734 5734 5735 5735 5735
5724 5722 5721 5719 5718 5716 5715 5714 5713 5711 5710 5709 5708 5707 5707 5706 5705 5704 5704 5703 5703 5703 5702 5702 5701 5700 5699 5699 5698 5697 5697 5696 5695 5694 5693 5692 5691 5691 5692 5691 5690 5689 5689 5688 5689 5690 5690 5690 5691 5693 5694 5695 5697 5697 5699 5701 5703 5704 5705 5706 5707 5708 5710 5711 5713 5714 5715 5715 5717 5718 5719 5721 5722 5723 5724 5725 5726 5727 5727 5728 5729 5729 5730 5730 5730
5719 5717 5715 5714 5712 5710 5709 5707 5706 5705 5704 5702 5701 5700 5699 5699 5699 5698 5697 5696 5696 5696 5695 5695 5695 5694 5693 5693 5692 5691 5691 5690 5690 5689 5688 5688 5686 5686 5686 5686 5685 5684 5684 5684 5684 5684 5684 5685 5685 5686 5688 5689 5690 5691 5693 5695 5696 5697 5698 5699 5701 5702 5704 5705 5707 5709 5710 5710 5711 5712 5714 5716 5717 5718 5719 5720 5721 5722 5722 5723 5724 5724 5725 5725 5725
5713 5711 5710 5708 5706 5704 5703 5701 5700 5698 5697 5695 5694 5693 5692 5691 5691 5690 5690 5690 5689 5688 5688 5688 5688 5687 5687 5686 5686 5685 5684 5684 5684 5683 5683 5683 5682 5681 5681 5681 5680 5679 5678 5678 5678 5679 5679 5679 5680 5681 5682 5683 5685 5686 5688 5689 5690 5691 5692 5693 5694 5696 5697 5699 5701 5703 5704 5705 5706 5707 5709 5710 5711 5712 5714 5715 5716 5717 5718 5718 5718 5719 5719 5720 5721
5708 5706 5704 5702 5700 5698 5696 5695 5693 5692 5690 5689 5687 5686 5684 5683 5682 5682 5682 5682 5681 5681 5680 5680 5680 5680 5680 5680 5679 5678 5678 5677 5677 5677 5677 5677 5677 5676 5675 5675 5675 5674 5673 5673 5673 5673 5674 5674 5674 5675 5677 5678 5679 5681 5682 5683 5684 5686 5686 5687 5689 5692 5692 5693 5696 5698 5699 5700 5701 5702 5704 5705 5705 5706 5708 5709 5710 5711 5712 5712 5713 5713 5714 5715 5715
5702 5700 5698 5696 5694 5692 5690 5688 5686 5685 5683 5682 5680 5678 5677 5675 5674 5673 5672 5673 5673 5672 5672 5672 5672 5672 5672 5672 5672 5671 5671 5670 5670 5671 5671 5671 5671 5670 5670 5670 5670 5669 5669 5668 5668 5668 5669 5669 5669 5669 5671 5672 5674 5675 5676 5677 5678 5679 5680 5681 5684 5686 5687 5688 5691 5692 5693 5694 5695 5696 5698 5699 5699 5700 5702 5703 5704 5705 5706 5707 5708 5708 5709 5709 5710
5697 5694 5692 5690 5687 5685 5683 5681 5679 5677 5675 5674 5672 5670 5669 5667 5666 5665 5664 5663 5663 5663 5663 5663 5663 5663 5664 5664 5664 5664 5664 5663 5663 5664 5664 5665 5665 5665 5665 5664 5664 5664 5664 5663 5663 5663 5663 5664 5664 5664 5665 5666 5667 5669 5670 5671 5672 5674 5675 5676 5677 5679 5681 5683 5685 5686 5687 5688 5689 5690 5692 5694 5695 5695 5695 5696 5698 5699 5700 5701 5702 5703 5704 5704 5705
5691 5688 5686 5683 5681 5679 5676 5674 5672 5669 5667 5665 5664 5662 5660 5659 5657 5656 5655 5655 5654 5654 5654 5654 5654 5654 5655 5655 5655 5656 5656 5656 5656 5656 5657 5658 5659 5659 5659 5658 5658 5658 5658 5658 5658 5657 5657 5658 5659 5659 5659 5660 5661 5663 5664 5665 5667 5668 5669 5670 5671 5673 5675 5676 5677 5678 5680 5682 5682 5683 5686 5689 5690 5689 5689 5690 5692 5693 5695 5696 5697 5698 5699 5699 5700
5684 5682 5679 5677 5674 5672 5669 5666 5663 5661 5659 5656 5654 5652 5650 5649 5647 5646 5645 5645 5645 5644 5644 5644 5644 5644 5645 5646 5646 5647 5648 5648 5648 5648 5649 5650 5652 5652 5652 5652 5651 5651 5652 5652 5652 5651 5651 5652 5653 5653 5654 5655 5655 5656 5657 5659 5661 5662 5663 5664 5665 5666 5668 5669 5670 5671 5674 5675 5675 5677 5680 5681 5683 5683 5683 5684 5685 5687 5689 5690 5691 5692 5693 5694 5695
5678 5676 5673 5670 5668 5665 5662 5659 5655 5653 5650 5647 5645 5642 5640 5638 5636 5635 5634 5634 5634 5634 5634 5634 5634 5635 5635 5636 5637 5638 5639 5639 5639 5640 5641 5642 5643 5644 5645 5645 5644 5645 5646 5646 5646 5646 5645 5646 5646 5647 5649 5649 5650 5650 5651 5653 5654 5655 5657 5658 5660 5661 5662 5663 5664 5666 5668 5668 5670 5672 5674 5674 5676 5678 5678 5678 5680 5682 5683 5684 5685 5687 5688 5689 5689
5673 5670 5667 5664 5661 5658 5655 5651 5647 5644 5641 5638 5635 5632 5630 5628 5625 5624 5623 5622 5622 5622 5622 5623 5624 5625 5625 5626 5627 5629 5630 5630 5630 5632 5633 5634 5635 5636 5637 5638 5638 5639 5639 5639 5639 5639 5639 5640 5640 5641 5642 5643 5644 5644 5645 5647 5648 5649 5650 5652 5654 5655 5656 5657 5659 5660 5662 5662 5664 5667 5668 5667 5669 5671 5671 5672 5673 5675 5677 5678 5680 5681 5682 5683 5684
5667 5664 5661 5658 5654 5650 5647 5643 5639 5636 5632 5629 5626 5622 5619 5617 5614 5612 5610 5609 5609 5609 5610 5611 5612 5613 5615 5616 5617 5619 5620 5621 5622 5623 5625 5627 5627 5627 5629 5630 5631 5632 5632 5632 5633 5633 5633 5634 5634 5635 5636 5637 5638 5639 5639 5641 5642 5643 5644 5646 5647 5649 5650 5651 5653 5654 5656 5657 5659 5661 5661 5661 5663 5665 5665 5666 5667 5669 5671 5673 5674 5675 5676 5677 5678